Printer-friendly version

IAU Minor Planet Center

Minor Planet Center

MPEC 2007-E49 : 2007 EZ

The following Minor Planet Electronic Circular may be linked-to from your own Web pages, but must not otherwise be redistributed electronically.


Read MPEC 2007-E48 Read MPEC 2007-E50


M.P.E.C. 2007-E49                                Issued 2007 Mar. 11, 02:29 UT

     The Minor Planet Electronic Circulars contain information on unusual
         minor planets and routine data on comets.  They are published
   on behalf of Commission 20 of the International Astronomical Union by the
          Minor Planet Center, Smithsonian Astrophysical Observatory,
                          Cambridge, MA 02138, U.S.A.

             Prepared using the Tamkin Foundation Computer Network

                              MPC@CFA.HARVARD.EDU
          URL http://cfa-www.harvard.edu/iau/mpc.html  ISSN 1523-6714

                                    2007 EZ

Observations:
     K07E00Z* C2007 03 10.38711 16 52 45.11 +31 10 33.8          18.0   EE049704
     K07E00Z  C2007 03 10.39817 16 52 34.89 +31 10 29.0          18.0   EE049704
     K07E00Z  C2007 03 10.40929 16 52 24.72 +31 10 25.2          17.8   EE049704
     K07E00Z  C2007 03 10.42052 16 52 14.41 +31 10 21.1          18.2   EE049704
     K07E00Z  C2007 03 10.43163 16 52 04.19 +31 10 16.4          18.5   EE049704
     K07E00Z  C2007 03 11.00168 16 43 40.48 +31 03 56.5          18.0 V EE049473
     K07E00Z  C2007 03 11.00534 16 43 37.26 +31 03 54.4          18.0 V EE049473
     K07E00Z  C2007 03 11.01066 16 43 32.54 +31 03 51.3          18.0 V EE049473
     K07E00Z  C2007 03 11.02457 16 43 20.28 +31 03 32.9                 EE049J95
     K07E00Z  C2007 03 11.02579 16 43 19.20 +31 03 31.9                 EE049J95
     K07E00Z  C2007 03 11.02701 16 43 18.12 +31 03 31.6          17.5 R EE049J95
     K07E00Z  C2007 03 11.04370 16 43 03.39 +31 03 27.9          18.1 V EE049198
     K07E00Z  C2007 03 11.04560 16 43 01.70 +31 03 26.8          18.1 V EE049198
     K07E00Z  C2007 03 11.05129 16 42 56.67 +31 03 23.1          18.2 V EE049198
     K07E00Z  C2007 03 11.05506 16 42 53.34 +31 03 20.9          18.2 V EE049198
     K07E00Z  C2007 03 11.05884 16 42 50.01 +31 03 18.5          18.2 V EE049198
     K07E00Z  C2007 03 11.06262 16 42 46.66 +31 03 16.1          18.1 V EE049198

Observer details:
198 Wildberg.  Observer R. Apitzsch.  0.35-m f/4.2 reflector + CCD.
473 Remanzacco.  Observers L. Donato, V. Gonano, E. Guido, G. Sostero.  0.25-m
    f/5.6 reflector + CCD.
704 Lincoln Laboratory ETS, New Mexico.  Observers M. Bezpalko, D. Torres,
    R. Kracke, G. Spitz, J. Kistler.  Measurers J. Stuart, S. Scruggs.  1.0-m
    f/2.15 reflector + CCD.
J95 Great Shefford.  Observer P. Birtwhistle.  0.40-m f/6.0 Schmidt-Cassegrain
    + CCD.

Orbital elements:
2007 EZ                                                  Earth MOID = 0.0960 AU
Epoch 2007 Apr. 10.0 TT = JDT 2454200.5                 MPC
M  34.68781              (2000.0)            P               Q
n   0.43343027     Peri.  357.88279     -0.10981009     -0.98879380
a   1.7292451      Node    98.41054     +0.91342949     -0.14050973
e   0.5793151      Incl.    5.86794     +0.39190346     +0.05043640
P   2.27           H   19.9           G   0.15           U   8
Residuals in seconds of arc
070310 704  0.0   0.4+    070311 473  0.3-  0.1-    070311 198  0.4-  0.2+
070310 704  1.0-  0.4-    070311 473  0.6-  0.1-    070311 198  0.5-  0.0
070310 704  0.5-  0.1-    070311 J95  0.3-  0.2-    070311 198  0.5-  0.1+
070310 704  0.3-  0.2+    070311 J95  0.4-  0.5-    070311 198  0.4-  0.0
070310 704  0.3-  0.1-    070311 J95  0.5-  0.0     070311 198  0.5-  0.0
070311 473  0.3-  0.1-    070311 198  0.3-  0.1+

Ephemeris:
2007 EZ                  a,e,i = 1.73, 0.58, 6                   q = 0.7275
Date    TT    R. A. (2000) Decl.     Delta      r     Elong.  Phase     V
2007 03 11    16 43.65   +31 04.5    0.128    1.024   100.5    72.5    18.0
2007 03 21    14 53.98   +26 35.1    0.173    1.116   130.4    42.8    18.0
2007 03 31    13 55.78   +21 25.4    0.240    1.209   148.0    25.9    18.4
2007 04 10    13 23.56   +17 11.8    0.322    1.301   155.0    19.0    19.0
2007 04 20    13 05.49   +13 43.6    0.420    1.391   152.7    19.3    19.7
2007 04 30    12 56.38   +10 45.4    0.531    1.478   146.1    22.3    20.4
2007 05 10    12 53.28   +08 08.1    0.656    1.562   138.5    25.4    21.1
2007 05 20    12 54.42   +05 45.1    0.793    1.644   130.8    27.8    21.7

Timothy B. Spahr             (C) Copyright 2007 MPC           M.P.E.C. 2007-E49

Read MPEC 2007-E48 Read MPEC 2007-E50


Our Web policy. Index to the CBAT/MPC/ICQ pages.


Valid HTML 4.01!